Regional Weather Roundup
Issued by NWS

Home | Current Version | Previous Version | Graphics & Text | Print | Product List | Glossary On
Versions: 1 2 3 4 5 6 7 8 9 10 11 12 13 14 15 16 17 18 19 20 21 22 23 24 25 26 27 28 29 30 31 32 33 34 35 36 37 38 39 40 41 42 43 44 45 46 47 48 49 50
000
ASUS43 KIND 300359
RWRIN

WEATHER ROUNDUP FOR INDIANA
NATIONAL WEATHER SERVICE INDIANAPOLIS IN
1200 AM EDT THU JUL 30 2015

NOTE: "FAIR" INDICATES FEW OR NO CLOUDS BELOW 12,000 FEET WITH NO
SIGNIFICANT WEATHER AND/OR OBSTRUCTIONS TO VISIBILITY.

* - STATION DOES NOT REPORT WEATHER SUCH AS PRECIPITATION OR FOG.

+ - STATION NOT QUALITY CONTROLLED BY THE NATIONAL WEATHER SERVICE.
    USE DATA WITH CAUTION...ESPECIALLY DEWPOINT AND RELATIVE
    HUMIDITY OBSERVATIONS.

INZ001>003-010>013-019-020-300500-
NORTHWEST INDIANA

CITY           SKY/WX    TMP DP  RH WIND       PRES   REMARKS
KNOX *+        CLEAR     70  55  60 W9        30.01S
MONTICELLO +   CLEAR     67  61  81 W3        30.03R
RENSSELAER +   CLEAR     68  61  77 W6        30.04S

$$

LMZ046-743>745-300500-
SOUTHERN LAKE MICHIGAN

STATION/POSITION TIME  TEMP    WIND        PRES    WAVE
                       AIR SEA DIR/SP/G            HT
                 (UTC) (F)     (DEG/KT/KT) (MB)    (FT)
BURNS HARBOR     0300   76     260/ 12/ 13 1016.9R
MICHIGAN CITY    0300   76     250/ 14/ 15   N/A
5NW MICH CITY    0300   77 74  290/ 10/ 14   N/A     2

$$

INZ004-005-014>016-021>024-300500-
NORTH CENTRAL INDIANA

CITY           SKY/WX    TMP DP  RH WIND       PRES   REMARKS
GOSHEN         CLEAR     65  58  78 CALM      30.00S
SOUTH BEND     CLEAR     69  61  75 W8        30.01S
WARSAW +       CLEAR     66  59  77 W3        30.01S

$$

INZ006>009-017-018-025>027-300500-
NORTHEAST INDIANA

CITY           SKY/WX    TMP DP  RH WIND       PRES   REMARKS
ANGOLA *+      CLEAR     64  63  94 CALM      30.00S
FORT WAYNE     PTCLDY    66  62  87 W5        30.01R

$$

INZ028-029-035-036-043>045-051>053-300500-
WEST CENTRAL INDIANA

CITY           SKY/WX    TMP DP  RH WIND       PRES   REMARKS
CRAWFORDSVL +  PTCLDY    65  59  81 NW7         N/A
GREENCASTLE +  MOCLDY    72  55  56 CALM      30.06S
LAFAYETTE      PTCLDY    65  63  93 CALM      30.04R
TERRE HAUTE    MOCLDY    72  61  68 NW5       30.05S

$$

INZ030>032-037>040-046>048-054>057-064-065-300500-
CENTRAL INDIANA

CITY           SKY/WX    TMP DP  RH WIND       PRES   REMARKS
FRANKFORT +    CLEAR     66  66 100 W3        30.06S
GREENWOOD *+   MOCLDY    75  55  50 NW7       30.05R
INDIANAPOLIS   CLOUDY    73  60  63 NW6       30.04R
-EAGLE CREEK   PTCLDY    73  62  68 NW6       30.04R
KOKOMO *+      CLEAR     70  57  64 W6        30.03S
MT COMFORT *+  PTCLDY    73  59  60 NW7       30.05R
SHELBYVILLE    MOCLDY    75  64  68 NW8       30.03R

$$

INZ033-034-041-042-049-050-058-059-300500-
EAST CENTRAL INDIANA

CITY           SKY/WX    TMP DP  RH WIND       PRES   REMARKS
MUNCIE         CLOUDY    75  65  70 NW8       30.03R

$$

INZ060-061-067>069-081>083-085>088-300500-
SOUTHWEST INDIANA

CITY           SKY/WX    TMP DP  RH WIND       PRES   REMARKS
EVANSVILLE     CLOUDY    80  69  69 N8        30.04S
HUNTINGBURG *+ CLOUDY    79  72  78 N7        30.04S

$$

INZ062-063-066-070>080-084-089>092-300500-
SOUTH CENTRAL AND SOUTHEAST INDIANA

CITY           SKY/WX    TMP DP  RH WIND       PRES   REMARKS
BLOOMINGTON    MOCLDY    75  64  68 NW3       30.06R
MADISON *+     CLOUDY    73  72  94 CALM      30.04S
SEYMOUR +        N/A     79  75  89 NW8       30.02S

$$



USA.gov is the U.S. government's official web portal to all federal, state and local government web resources and services.